Year,Month,Day,Hour,Minute,Value (Times are PST for temperature in C)
2008,12,23,00,00,-4.50
2008,12,23,00,01,-4.50
2008,12,23,00,02,-4.50
2008,12,23,00,03,-4.50
2008,12,23,00,04,-4.50
2008,12,23,00,05,-4.50
2008,12,23,00,06,-4.60
2008,12,23,00,07,-4.60
2008,12,23,00,08,-4.60
2008,12,23,00,09,-4.60
2008,12,23,00,10,-4.60
2008,12,23,00,11,-4.60
2008,12,23,00,12,-4.60
2008,12,23,01,02,-5.20
2008,12,23,01,03,-5.20
2008,12,23,01,04,-5.30
2008,12,23,01,05,-5.30
2008,12,23,01,06,-5.30
2008,12,23,01,07,-5.20
2008,12,23,01,08,-5.20
2008,12,23,01,09,-5.20
2008,12,23,01,10,-5.20
2008,12,23,01,11,-5.20
2008,12,23,01,12,-5.20
2008,12,23,01,13,-5.20
2008,12,23,01,14,-5.20
2008,12,23,01,15,-5.20
2008,12,23,01,16,-5.10
2008,12,23,01,17,-5.10
2008,12,23,01,18,-5.10
2008,12,23,01,19,-5.10
2008,12,23,01,20,-5.10
2008,12,23,01,21,-5.10
2008,12,23,01,22,-5.10
2008,12,23,01,23,-5.10
2008,12,23,01,24,-5.10
2008,12,23,01,25,-5.20
2008,12,23,01,26,-5.20
2008,12,23,01,27,-5.20
2008,12,23,01,28,-5.20
2008,12,23,01,29,-5.30
2008,12,23,01,30,-5.30
2008,12,23,01,31,-5.30
2008,12,23,01,32,-5.30
2008,12,23,01,33,-5.30
2008,12,23,01,34,-5.30
2008,12,23,01,35,-5.30
2008,12,23,01,36,-5.30
2008,12,23,01,37,-5.40
2008,12,23,01,38,-5.40
2008,12,23,01,39,-5.40
2008,12,23,01,40,-5.50
2008,12,23,01,41,-5.50
2008,12,23,01,42,-5.50
2008,12,23,01,43,-5.60
2008,12,23,01,44,-5.60
2008,12,23,01,45,-5.60
2008,12,23,01,46,-5.60
2008,12,23,01,47,-5.70
2008,12,23,01,48,-5.70
2008,12,23,01,49,-5.70
2008,12,23,01,50,-5.70
2008,12,23,01,51,-5.80
2008,12,23,01,52,-5.80
2008,12,23,01,53,-5.80
2008,12,23,01,54,-5.80
2008,12,23,01,55,-5.80
2008,12,23,01,56,-5.90
2008,12,23,01,57,-5.90
2008,12,23,01,58,-5.90
2008,12,23,01,59,-5.90
2008,12,23,02,00,-5.90
2008,12,23,02,01,-5.80
2008,12,23,02,02,-5.80
2008,12,23,02,03,-5.80
2008,12,23,02,04,-5.80
2008,12,23,02,05,-5.70
2008,12,23,02,06,-5.70
2008,12,23,02,07,-5.60
2008,12,23,02,08,-5.60
2008,12,23,02,09,-5.50
2008,12,23,02,10,-5.50
2008,12,23,02,11,-5.40
2008,12,23,02,12,-5.40
2008,12,23,02,13,-5.40
2008,12,23,02,14,-5.30
2008,12,23,02,15,-5.30
2008,12,23,02,16,-5.30
2008,12,23,02,17,-5.30
2008,12,23,02,18,-5.30
2008,12,23,02,19,-5.30
2008,12,23,02,20,-5.30
2008,12,23,02,21,-5.20
2008,12,23,02,22,-5.20
2008,12,23,02,23,-5.20
2008,12,23,02,24,-5.20
2008,12,23,02,25,-5.10
2008,12,23,02,26,-5.10
2008,12,23,02,27,-5.10
2008,12,23,02,28,-5.10
2008,12,23,02,29,-5.10
2008,12,23,02,30,-5.10
2008,12,23,02,31,-5.10
2008,12,23,02,32,-5.00
2008,12,23,02,33,-5.00
2008,12,23,02,34,-5.00
2008,12,23,02,35,-5.00
2008,12,23,02,36,-5.00
2008,12,23,02,37,-5.00
2008,12,23,02,38,-5.00
2008,12,23,02,39,-5.00
2008,12,23,02,40,-5.00
2008,12,23,02,41,-5.00
2008,12,23,02,42,-5.00
2008,12,23,02,43,-5.00
2008,12,23,02,44,-5.00
2008,12,23,02,45,-5.10
2008,12,23,02,46,-5.10
2008,12,23,02,47,-5.00
2008,12,23,02,48,-5.00
2008,12,23,02,49,-5.00
2008,12,23,02,50,-5.00
2008,12,23,02,51,-5.00
2008,12,23,02,52,-5.00
2008,12,23,02,53,-5.00
2008,12,23,02,54,-5.00
2008,12,23,02,55,-4.90
2008,12,23,02,56,-4.90
2008,12,23,02,57,-4.90
2008,12,23,02,58,-4.90
2008,12,23,02,59,-4.90
2008,12,23,03,00,-4.90
2008,12,23,03,01,-4.90
2008,12,23,03,02,-4.90
2008,12,23,03,03,-4.90
2008,12,23,03,04,-4.80
2008,12,23,03,05,-4.80
2008,12,23,03,06,-4.80
2008,12,23,03,07,-4.80
2008,12,23,03,08,-4.80
2008,12,23,03,09,-4.80
2008,12,23,03,10,-4.80
2008,12,23,03,11,-4.70
2008,12,23,03,12,-4.70
2008,12,23,03,13,-4.70
2008,12,23,03,14,-4.70
2008,12,23,03,15,-4.70
2008,12,23,03,16,-4.70
2008,12,23,03,17,-4.70
2008,12,23,03,18,-4.70
2008,12,23,03,19,-4.70
2008,12,23,03,20,-4.70
2008,12,23,03,21,-4.70
2008,12,23,03,22,-4.70
2008,12,23,03,23,-4.70
2008,12,23,03,24,-4.70
2008,12,23,03,25,-4.70
2008,12,23,03,26,-4.70
2008,12,23,03,27,-4.70
2008,12,23,03,28,-4.70
2008,12,23,03,29,-4.70
2008,12,23,03,30,-4.70
2008,12,23,03,31,-4.70
2008,12,23,03,32,-4.70
2008,12,23,03,33,-4.70
2008,12,23,03,34,-4.70
2008,12,23,03,35,-4.70
2008,12,23,03,36,-4.70
2008,12,23,03,37,-4.70
2008,12,23,03,38,-4.70
2008,12,23,03,39,-4.70
2008,12,23,03,40,-4.70
2008,12,23,03,41,-4.70
2008,12,23,03,42,-4.70
2008,12,23,03,43,-4.70
2008,12,23,03,44,-4.80
2008,12,23,03,45,-4.80
2008,12,23,03,46,-4.80
2008,12,23,03,47,-4.80
2008,12,23,03,48,-4.80
2008,12,23,03,49,-4.90
2008,12,23,03,50,-4.90
2008,12,23,03,51,-4.90
2008,12,23,03,52,-4.90
2008,12,23,03,53,-4.90
2008,12,23,03,54,-4.90
2008,12,23,03,55,-5.00
2008,12,23,03,56,-5.00
2008,12,23,03,57,-5.00
2008,12,23,03,58,-5.00
2008,12,23,03,59,-5.00
2008,12,23,04,00,-5.10
2008,12,23,04,01,-5.10
2008,12,23,04,02,-5.10
2008,12,23,04,03,-5.10
2008,12,23,04,04,-5.10
2008,12,23,04,05,-5.10
2008,12,23,04,06,-5.10
2008,12,23,04,07,-5.10
2008,12,23,04,08,-5.10
2008,12,23,04,09,-5.10
2008,12,23,04,10,-5.10
2008,12,23,04,11,-5.10
2008,12,23,04,12,-5.20
2008,12,23,04,13,-5.20
2008,12,23,04,14,-5.20
2008,12,23,04,15,-5.20
2008,12,23,04,16,-5.20
2008,12,23,04,17,-5.20
2008,12,23,04,18,-5.20
2008,12,23,04,19,-5.20
2008,12,23,04,20,-5.20
2008,12,23,04,21,-5.20
2008,12,23,04,22,-5.20
2008,12,23,04,23,-5.20
2008,12,23,04,24,-5.30
2008,12,23,04,25,-5.30
2008,12,23,04,26,-5.30
2008,12,23,04,27,-5.30
2008,12,23,04,28,-5.30
2008,12,23,04,29,-5.30
2008,12,23,04,30,-5.30
2008,12,23,04,31,-5.40
2008,12,23,04,32,-5.40
2008,12,23,04,33,-5.40
2008,12,23,04,34,-5.40
2008,12,23,04,35,-5.40
2008,12,23,04,36,-5.40
2008,12,23,04,37,-5.40
2008,12,23,04,38,-5.40
2008,12,23,04,39,-5.40
2008,12,23,04,40,-5.40
2008,12,23,04,41,-5.40
2008,12,23,04,42,-5.40
2008,12,23,04,43,-5.40
2008,12,23,04,44,-5.40
2008,12,23,04,45,-5.40
2008,12,23,04,46,-5.40
2008,12,23,04,47,-5.40
2008,12,23,04,48,-5.50
2008,12,23,04,49,-5.50
2008,12,23,04,50,-5.50
2008,12,23,04,51,-5.50
2008,12,23,04,52,-5.50
2008,12,23,04,53,-5.50
2008,12,23,04,54,-5.50
2008,12,23,04,55,-5.50
2008,12,23,04,56,-5.60
2008,12,23,04,57,-5.60
2008,12,23,04,58,-5.60
2008,12,23,04,59,-5.70
2008,12,23,05,00,-5.70
2008,12,23,05,01,-5.70
2008,12,23,05,02,-5.70
2008,12,23,05,03,-5.80
2008,12,23,05,04,-5.80
2008,12,23,05,05,-5.80
2008,12,23,05,06,-5.80
2008,12,23,05,07,-5.90
2008,12,23,05,08,-5.90
2008,12,23,05,09,-5.90
2008,12,23,05,10,-5.90
2008,12,23,05,11,-5.90
2008,12,23,05,12,-6.00
2008,12,23,05,13,-6.10
2008,12,23,05,14,-6.10
2008,12,23,05,15,-6.10
2008,12,23,05,16,-6.10
2008,12,23,05,17,-6.10
2008,12,23,05,18,-6.10
2008,12,23,05,19,-6.10
2008,12,23,05,20,-6.10
2008,12,23,05,21,-6.10
2008,12,23,05,22,-6.20
2008,12,23,05,23,-6.20
2008,12,23,05,24,-6.20
2008,12,23,05,25,-6.20
2008,12,23,05,26,-6.20
2008,12,23,05,27,-6.30
2008,12,23,05,28,-6.30
2008,12,23,05,29,-6.30
2008,12,23,05,30,-6.30
2008,12,23,05,31,-6.40
2008,12,23,05,32,-6.40
2008,12,23,05,33,-6.40
2008,12,23,05,34,-6.40
2008,12,23,05,35,-6.50
2008,12,23,05,36,-6.50
2008,12,23,05,37,-6.50
2008,12,23,05,38,-6.50
2008,12,23,05,39,-6.50
2008,12,23,05,40,-6.50
2008,12,23,05,41,-6.50
2008,12,23,05,42,-6.50
2008,12,23,05,43,-6.50
2008,12,23,05,44,-6.50
2008,12,23,05,45,-6.50
2008,12,23,05,46,-6.50
2008,12,23,05,47,-6.50
2008,12,23,05,48,-6.50
2008,12,23,05,49,-6.50
2008,12,23,05,50,-6.50
2008,12,23,05,51,-6.50
2008,12,23,05,52,-6.50
2008,12,23,05,53,-6.40
2008,12,23,05,54,-6.40
2008,12,23,05,55,-6.40
2008,12,23,05,56,-6.40
2008,12,23,05,57,-6.30
2008,12,23,05,58,-6.30
2008,12,23,05,59,-6.30
2008,12,23,06,00,-6.20
2008,12,23,06,01,-6.20
2008,12,23,06,02,-6.10
2008,12,23,06,03,-6.10
2008,12,23,06,04,-6.10
2008,12,23,06,05,-5.90
2008,12,23,06,06,-5.90
2008,12,23,06,07,-5.90
2008,12,23,06,08,-5.90
2008,12,23,06,09,-5.90
2008,12,23,06,10,-5.80
2008,12,23,06,11,-5.80
2008,12,23,06,12,-5.80
2008,12,23,06,13,-5.80
2008,12,23,06,14,-5.70
2008,12,23,06,15,-5.70
2008,12,23,06,16,-5.60
2008,12,23,06,17,-5.60
2008,12,23,06,18,-5.60
2008,12,23,06,19,-5.60
2008,12,23,06,20,-5.50
2008,12,23,06,21,-5.50
2008,12,23,06,22,-5.50
2008,12,23,06,23,-5.40
2008,12,23,06,24,-5.40
2008,12,23,06,25,-5.40
2008,12,23,06,26,-5.40
2008,12,23,06,27,-5.40
2008,12,23,06,28,-5.30
2008,12,23,06,29,-5.30
2008,12,23,06,30,-5.30
2008,12,23,06,31,-5.30
2008,12,23,06,32,-5.30
2008,12,23,06,33,-5.30
2008,12,23,06,34,-5.30
2008,12,23,06,35,-5.30
2008,12,23,06,36,-5.30
2008,12,23,06,37,-5.30
2008,12,23,06,38,-5.30
2008,12,23,06,39,-5.30
2008,12,23,06,40,-5.30
2008,12,23,06,41,-5.30
2008,12,23,06,42,-5.30
2008,12,23,06,43,-5.30
2008,12,23,06,44,-5.30
2008,12,23,06,45,-5.30
2008,12,23,06,46,-5.30
2008,12,23,06,47,-5.30
2008,12,23,06,48,-5.30
2008,12,23,06,49,-5.30
2008,12,23,06,50,-5.20
2008,12,23,06,51,-5.20
2008,12,23,06,52,-5.20
2008,12,23,06,53,-5.20
2008,12,23,06,54,-5.20
2008,12,23,06,55,-5.20
2008,12,23,06,56,-5.20
2008,12,23,06,57,-5.20
2008,12,23,06,58,-5.20
2008,12,23,06,59,-5.20
2008,12,23,07,00,-5.20
2008,12,23,07,01,-5.20
2008,12,23,07,02,-5.20
2008,12,23,07,03,-5.10
2008,12,23,07,04,-5.10
2008,12,23,07,05,-5.10
2008,12,23,07,06,-5.10
2008,12,23,07,07,-5.10
2008,12,23,07,08,-5.00
2008,12,23,07,09,-5.00
2008,12,23,07,10,-5.00
2008,12,23,07,11,-5.00
2008,12,23,07,12,-5.00
2008,12,23,07,13,-5.00
2008,12,23,07,14,-5.00
2008,12,23,07,15,-4.90
2008,12,23,07,16,-4.90
2008,12,23,07,17,-4.90
2008,12,23,07,18,-4.90
2008,12,23,07,19,-4.90
2008,12,23,07,20,-4.90
2008,12,23,07,21,-4.90
2008,12,23,07,22,-4.90
2008,12,23,07,23,-5.00
2008,12,23,07,24,-5.00
2008,12,23,07,25,-5.00
2008,12,23,07,26,-5.00
2008,12,23,07,27,-5.00
2008,12,23,07,28,-5.00
2008,12,23,07,29,-5.00
2008,12,23,07,30,-5.00
2008,12,23,07,31,-5.00
2008,12,23,07,32,-5.00
2008,12,23,07,33,-5.00
2008,12,23,07,34,-5.00
2008,12,23,07,35,-5.00
2008,12,23,07,36,-5.00
2008,12,23,07,37,-5.00
2008,12,23,07,38,-5.00
2008,12,23,07,39,-5.00
2008,12,23,07,40,-5.00
2008,12,23,07,41,-5.00
2008,12,23,07,42,-5.00
2008,12,23,07,43,-4.90
2008,12,23,07,44,-4.90
2008,12,23,07,45,-4.90
2008,12,23,07,46,-4.90
2008,12,23,07,47,-4.90
2008,12,23,07,48,-4.90
2008,12,23,07,49,-4.90
2008,12,23,07,50,-4.90
2008,12,23,07,51,-4.90
2008,12,23,07,52,-4.90
2008,12,23,07,53,-4.90
2008,12,23,07,54,-4.90
2008,12,23,07,55,-5.00
2008,12,23,07,56,-5.00
2008,12,23,07,57,-5.00
2008,12,23,07,58,-5.00
2008,12,23,07,59,-5.00
2008,12,23,08,00,-5.00
2008,12,23,08,01,-5.00
2008,12,23,08,02,-4.90
2008,12,23,08,03,-4.90
2008,12,23,08,04,-4.90
2008,12,23,08,05,-4.90
2008,12,23,08,06,-4.90
2008,12,23,08,07,-4.90
2008,12,23,08,08,-4.90
2008,12,23,08,09,-4.90
2008,12,23,08,10,-4.90
2008,12,23,08,11,-4.90
2008,12,23,08,12,-4.90
2008,12,23,08,13,-4.90
2008,12,23,08,14,-4.90
2008,12,23,08,15,-4.90
2008,12,23,08,16,-4.90
2008,12,23,08,17,-4.90
2008,12,23,08,18,-4.90
2008,12,23,08,19,-4.90
2008,12,23,08,20,-4.80
2008,12,23,08,21,-4.80
2008,12,23,08,22,-4.80
2008,12,23,08,23,-4.80
2008,12,23,08,24,-4.80
2008,12,23,08,25,-4.80
2008,12,23,08,26,-4.80
2008,12,23,08,27,-4.80
2008,12,23,08,28,-4.80
2008,12,23,08,29,-4.80
2008,12,23,08,30,-4.80
2008,12,23,08,31,-4.80
2008,12,23,08,32,-4.70
2008,12,23,08,33,-4.70
2008,12,23,08,34,-4.70
2008,12,23,08,35,-4.70
2008,12,23,08,36,-4.70
2008,12,23,08,37,-4.70
2008,12,23,08,38,-4.70
2008,12,23,08,39,-4.70
2008,12,23,08,40,-4.70
2008,12,23,08,41,-4.70
2008,12,23,08,42,-4.70
2008,12,23,08,43,-4.70
2008,12,23,08,44,-4.70
2008,12,23,08,45,-4.70
2008,12,23,08,46,-4.70
2008,12,23,08,47,-4.70
2008,12,23,08,48,-4.70
2008,12,23,08,49,-4.70
2008,12,23,08,50,-4.70
2008,12,23,08,51,-4.70
2008,12,23,08,52,-4.70
2008,12,23,08,53,-4.70
2008,12,23,08,54,-4.60
2008,12,23,08,55,-4.60
2008,12,23,08,56,-4.60
2008,12,23,08,57,-4.60
2008,12,23,08,58,-4.60
2008,12,23,08,59,-4.60
2008,12,23,09,00,-4.60
2008,12,23,09,01,-4.50
2008,12,23,09,02,-4.50
2008,12,23,09,03,-4.50
2008,12,23,09,04,-4.50
2008,12,23,09,05,-4.50
2008,12,23,09,06,-4.50
2008,12,23,09,07,-4.40
2008,12,23,09,08,-4.40
2008,12,23,09,09,-4.40
2008,12,23,09,10,-4.40
2008,12,23,09,11,-4.40
2008,12,23,09,12,-4.30
2008,12,23,09,13,-4.30
2008,12,23,09,14,-4.30
2008,12,23,09,15,-4.30
2008,12,23,09,16,-4.20
2008,12,23,09,17,-4.20
2008,12,23,09,18,-4.20
2008,12,23,09,19,-4.20
2008,12,23,09,20,-4.20
2008,12,23,09,21,-4.20
2008,12,23,09,22,-4.10
2008,12,23,09,23,-4.10
2008,12,23,09,24,-4.10
2008,12,23,09,25,-4.10
2008,12,23,09,26,-4.10
2008,12,23,09,27,-4.00
2008,12,23,09,28,-4.00
2008,12,23,09,29,-4.00
2008,12,23,09,30,-4.00
2008,12,23,09,31,-4.00
2008,12,23,09,32,-4.00
2008,12,23,09,33,-4.00
2008,12,23,09,34,-4.00
2008,12,23,09,35,-4.00
2008,12,23,09,36,-4.00
2008,12,23,09,37,-3.90
2008,12,23,09,38,-3.90
2008,12,23,09,39,-3.90
2008,12,23,09,40,-3.90
2008,12,23,09,41,-3.90
2008,12,23,09,42,-3.90
2008,12,23,09,43,-3.90
2008,12,23,09,44,-3.90
2008,12,23,09,45,-3.90
2008,12,23,09,46,-3.80
2008,12,23,09,47,-3.80
2008,12,23,09,48,-3.80
2008,12,23,09,49,-3.80
2008,12,23,09,50,-3.80
2008,12,23,09,51,-3.70
2008,12,23,09,52,-3.70
2008,12,23,09,53,-3.70
2008,12,23,09,54,-3.70
2008,12,23,09,55,-3.70
2008,12,23,09,56,-3.70
2008,12,23,09,57,-3.70
2008,12,23,09,58,-3.60
2008,12,23,09,59,-3.60
2008,12,23,10,00,-3.60
2008,12,23,10,01,-3.60
2008,12,23,10,02,-3.60
2008,12,23,10,03,-3.50
2008,12,23,10,04,-3.50
2008,12,23,10,05,-3.50
2008,12,23,10,06,-3.50
2008,12,23,10,07,-3.50
2008,12,23,10,08,-3.50
2008,12,23,10,09,-3.40
2008,12,23,10,10,-3.40
2008,12,23,10,11,-3.40
2008,12,23,10,12,-3.30
2008,12,23,10,13,-3.30
2008,12,23,10,14,-3.30
2008,12,23,10,15,-3.30
2008,12,23,10,16,-3.30
2008,12,23,10,17,-3.30
2008,12,23,10,18,-3.30
2008,12,23,10,19,-3.30
2008,12,23,10,20,-3.20
2008,12,23,10,21,-3.20
2008,12,23,10,22,-3.20
2008,12,23,10,23,-3.10
2008,12,23,10,24,-3.10
2008,12,23,10,25,-3.10
2008,12,23,10,26,-3.00
2008,12,23,10,27,-3.00
2008,12,23,10,28,-3.00
2008,12,23,10,29,-3.00
2008,12,23,10,30,-3.00
2008,12,23,10,31,-2.90
2008,12,23,10,32,-2.90
2008,12,23,10,33,-2.90
2008,12,23,10,34,-2.90
2008,12,23,10,35,-2.90
2008,12,23,10,36,-2.90
2008,12,23,10,37,-2.80
2008,12,23,10,38,-2.80
2008,12,23,10,39,-2.80
2008,12,23,10,40,-2.80
2008,12,23,10,41,-2.80
2008,12,23,10,42,-2.80
2008,12,23,10,43,-2.80
2008,12,23,10,44,-2.80
2008,12,23,10,45,-2.70
2008,12,23,10,46,-2.70
2008,12,23,10,47,-2.70
2008,12,23,10,48,-2.70
2008,12,23,10,49,-2.60
2008,12,23,10,50,-2.60
2008,12,23,10,51,-2.60
2008,12,23,10,52,-2.50
2008,12,23,10,53,-2.50
2008,12,23,10,54,-2.50
2008,12,23,10,55,-2.50
2008,12,23,10,56,-2.40
2008,12,23,10,57,-2.40
2008,12,23,10,58,-2.40
2008,12,23,10,59,-2.40
2008,12,23,11,00,-2.40
2008,12,23,11,01,-2.30
2008,12,23,11,02,-2.30
2008,12,23,11,03,-2.30
2008,12,23,11,04,-2.30
2008,12,23,11,05,-2.30
2008,12,23,11,06,-2.30
2008,12,23,11,07,-2.30
2008,12,23,11,08,-2.30
2008,12,23,11,09,-2.30
2008,12,23,11,10,-2.20
2008,12,23,11,11,-2.20
2008,12,23,11,12,-2.20
2008,12,23,11,13,-2.20
2008,12,23,11,14,-2.10
2008,12,23,11,15,-2.10
2008,12,23,11,16,-2.10
2008,12,23,11,17,-2.10
2008,12,23,11,18,-2.10
2008,12,23,11,19,-2.00
2008,12,23,11,20,-2.00
2008,12,23,11,21,-2.00
2008,12,23,11,22,-2.00
2008,12,23,11,23,-1.90
2008,12,23,11,24,-1.90
2008,12,23,11,25,-1.90
2008,12,23,11,26,-1.80
2008,12,23,11,27,-1.80
2008,12,23,11,28,-1.80
2008,12,23,11,29,-1.80
2008,12,23,11,30,-1.80
2008,12,23,11,31,-1.80
2008,12,23,11,32,-1.80
2008,12,23,11,33,-1.70
2008,12,23,11,34,-1.70
2008,12,23,11,35,-1.70
2008,12,23,11,36,-1.70
2008,12,23,11,37,-1.60
2008,12,23,11,38,-1.60
2008,12,23,11,39,-1.60
2008,12,23,11,40,-1.60
2008,12,23,11,41,-1.50
2008,12,23,11,42,-1.50
2008,12,23,11,43,-1.50
2008,12,23,11,44,-1.40
2008,12,23,11,45,-1.40
2008,12,23,11,46,-1.40
2008,12,23,11,47,-1.40
2008,12,23,11,48,-1.40
2008,12,23,11,49,-1.40
2008,12,23,11,50,-1.40
2008,12,23,11,51,-1.40
2008,12,23,11,52,-1.40
2008,12,23,11,53,-1.30
2008,12,23,11,54,-1.30
2008,12,23,11,55,-1.30
2008,12,23,11,56,-1.20
2008,12,23,11,57,-1.20
2008,12,23,11,58,-1.20
2008,12,23,11,59,-1.20
2008,12,23,12,00,-1.10
2008,12,23,12,01,-1.10
2008,12,23,12,02,-1.10
2008,12,23,12,03,-1.10
2008,12,23,12,04,-1.10
2008,12,23,12,05,-1.10
2008,12,23,12,06,-1.00
2008,12,23,12,07,-0.90
2008,12,23,12,08,-0.90
2008,12,23,12,09,-0.90
2008,12,23,12,10,-0.90
2008,12,23,12,11,-0.90
2008,12,23,12,12,-0.90
2008,12,23,12,13,-0.90
2008,12,23,12,14,-0.90
2008,12,23,12,15,-0.90
2008,12,23,12,16,-0.90
2008,12,23,12,17,-0.90
2008,12,23,12,18,-0.90
2008,12,23,12,19,-0.90
2008,12,23,12,20,-0.90
2008,12,23,12,21,-0.90
2008,12,23,12,22,-0.90
2008,12,23,12,23,-0.90
2008,12,23,12,24,-0.80
2008,12,23,12,25,-0.80
2008,12,23,12,26,-0.80
2008,12,23,12,27,-0.80
2008,12,23,12,28,-0.80
2008,12,23,12,29,-0.80
2008,12,23,12,30,-0.80
2008,12,23,12,31,-0.70
2008,12,23,12,32,-0.70
2008,12,23,12,33,-0.70
2008,12,23,12,34,-0.70
2008,12,23,12,35,-0.70
2008,12,23,12,36,-0.70
2008,12,23,12,37,-0.70
2008,12,23,12,38,-0.70
2008,12,23,12,39,-0.70
2008,12,23,12,40,-0.70
2008,12,23,12,41,-0.70
2008,12,23,12,42,-0.70
2008,12,23,12,43,-0.70
2008,12,23,12,44,-0.80
2008,12,23,12,45,-0.80
2008,12,23,12,46,-0.80
2008,12,23,12,47,-0.80
2008,12,23,12,48,-0.80
2008,12,23,12,49,-0.80
2008,12,23,12,50,-0.80
2008,12,23,12,51,-0.70
2008,12,23,12,52,-0.70
2008,12,23,12,53,-0.70
2008,12,23,12,54,-0.70
2008,12,23,12,55,-0.70
2008,12,23,12,56,-0.70
2008,12,23,12,57,-0.80
2008,12,23,12,58,-0.80
2008,12,23,12,59,-0.80
2008,12,23,13,00,-0.80
2008,12,23,13,01,-0.80
2008,12,23,13,02,-0.80
2008,12,23,13,03,-0.80
2008,12,23,13,04,-0.70
2008,12,23,13,05,-0.70
2008,12,23,13,06,-0.70
2008,12,23,13,07,-0.70
2008,12,23,13,08,-0.70
2008,12,23,13,09,-0.70
2008,12,23,13,10,-0.70
2008,12,23,13,11,-0.70
2008,12,23,13,12,-0.70
2008,12,23,13,13,-0.70
2008,12,23,13,14,-0.70
2008,12,23,13,15,-0.70
2008,12,23,13,16,-0.70
2008,12,23,13,17,-0.70
2008,12,23,13,18,-0.70
2008,12,23,13,19,-0.70
2008,12,23,13,20,-0.70
2008,12,23,13,21,-0.70
2008,12,23,13,22,-0.70
2008,12,23,13,23,-0.70
2008,12,23,13,24,-0.70
2008,12,23,13,25,-0.70
2008,12,23,13,26,-0.70
2008,12,23,13,27,-0.70
2008,12,23,13,28,-0.70
2008,12,23,13,29,-0.70
2008,12,23,13,30,-0.70
2008,12,23,13,31,-0.60
2008,12,23,13,32,-0.60
2008,12,23,13,33,-0.60
2008,12,23,13,34,-0.60
2008,12,23,13,35,-0.60
2008,12,23,13,36,-0.60
2008,12,23,13,37,-0.60
2008,12,23,13,38,-0.60
2008,12,23,13,39,-0.60
2008,12,23,13,40,-0.70
2008,12,23,13,41,-0.70
2008,12,23,13,42,-0.70
2008,12,23,13,43,-0.70
2008,12,23,13,44,-0.70
2008,12,23,13,45,-0.70
2008,12,23,13,46,-0.70
2008,12,23,13,47,-0.70
2008,12,23,13,48,-0.70
2008,12,23,13,49,-0.80
2008,12,23,13,50,-0.80
2008,12,23,13,51,-0.80
2008,12,23,13,52,-0.80
2008,12,23,13,53,-0.80
2008,12,23,13,54,-0.90
2008,12,23,13,55,-0.90
2008,12,23,13,56,-0.90
2008,12,23,13,57,-0.90
2008,12,23,13,58,-0.90
2008,12,23,13,59,-0.90
2008,12,23,14,00,-0.90
2008,12,23,14,01,-0.90
2008,12,23,14,02,-0.90
2008,12,23,14,03,-0.90
2008,12,23,14,04,-0.90
2008,12,23,14,05,-0.90
2008,12,23,14,06,-0.90
2008,12,23,14,07,-0.90
2008,12,23,14,08,-0.90
2008,12,23,14,09,-0.90
2008,12,23,14,10,-0.90
2008,12,23,14,11,-0.90
2008,12,23,14,12,-0.90
2008,12,23,14,13,-0.90
2008,12,23,14,14,-0.90
2008,12,23,14,15,-0.90
2008,12,23,14,16,-0.90
2008,12,23,14,17,-0.90
2008,12,23,14,18,-0.90
2008,12,23,14,19,-0.90
2008,12,23,14,20,-0.90
2008,12,23,14,21,-0.90
2008,12,23,14,22,-0.90
2008,12,23,14,23,-0.90
2008,12,23,14,24,-0.90
2008,12,23,14,25,-0.90
2008,12,23,14,26,-0.90
2008,12,23,14,27,-0.90
2008,12,23,14,28,-0.90
2008,12,23,14,29,-0.90
2008,12,23,14,30,-0.80
2008,12,23,14,31,-0.80
2008,12,23,14,32,-0.80
2008,12,23,14,33,-0.80
2008,12,23,14,34,-0.80
2008,12,23,14,35,-0.80
2008,12,23,14,36,-0.80
2008,12,23,14,37,-0.80
2008,12,23,14,38,-0.80
2008,12,23,14,39,-0.80
2008,12,23,14,40,-0.80
2008,12,23,14,41,-0.70
2008,12,23,14,42,-0.70
2008,12,23,14,43,-0.70
2008,12,23,14,44,-0.70
2008,12,23,14,45,-0.70
2008,12,23,14,46,-0.70
2008,12,23,14,47,-0.70
2008,12,23,14,48,-0.70
2008,12,23,14,49,-0.70
2008,12,23,14,50,-0.70
2008,12,23,14,51,-0.70
2008,12,23,14,52,-0.70
2008,12,23,14,53,-0.70
2008,12,23,14,54,-0.70
2008,12,23,14,55,-0.70
2008,12,23,14,56,-0.70
2008,12,23,14,57,-0.70
2008,12,23,14,58,-0.70
2008,12,23,14,59,-0.70
2008,12,23,15,00,-0.70
2008,12,23,15,01,-0.70
2008,12,23,15,02,-0.70
2008,12,23,15,03,-0.70
2008,12,23,15,04,-0.80
2008,12,23,15,05,-0.80
2008,12,23,15,06,-0.80
2008,12,23,15,07,-0.80
2008,12,23,15,08,-0.80
2008,12,23,15,09,-0.80
2008,12,23,15,10,-0.80
2008,12,23,15,11,-0.80
2008,12,23,15,12,-0.80
2008,12,23,15,13,-0.80
2008,12,23,15,14,-0.80
2008,12,23,15,15,-0.80
2008,12,23,15,16,-0.80
2008,12,23,15,17,-0.80
2008,12,23,15,18,-0.80
2008,12,23,15,19,-0.80
2008,12,23,15,20,-0.80
2008,12,23,15,21,-0.80
2008,12,23,15,22,-0.80
2008,12,23,15,23,-0.90
2008,12,23,15,24,-0.90
2008,12,23,15,25,-0.90
2008,12,23,15,26,-0.90
2008,12,23,15,27,-0.90
2008,12,23,15,28,-0.90
2008,12,23,15,29,-0.90
2008,12,23,15,30,-0.90
2008,12,23,15,31,-0.90
2008,12,23,15,32,-0.90
2008,12,23,15,33,-0.90
2008,12,23,15,34,-0.90
2008,12,23,15,35,-0.90
2008,12,23,15,36,-0.90
2008,12,23,15,37,-0.90
2008,12,23,15,38,-0.90
2008,12,23,15,39,-0.90
2008,12,23,15,40,-0.90
2008,12,23,15,41,-0.90
2008,12,23,15,42,-0.90
2008,12,23,15,43,-0.90
2008,12,23,15,44,-0.90
2008,12,23,15,45,-0.90
2008,12,23,15,46,-0.90
2008,12,23,15,47,-0.90
2008,12,23,15,48,-0.90
2008,12,23,15,49,-0.90
2008,12,23,15,50,-0.90
2008,12,23,15,51,-0.90
2008,12,23,15,52,-0.90
2008,12,23,15,53,-0.90
2008,12,23,15,54,-0.90
2008,12,23,15,55,-0.90
2008,12,23,15,56,-0.90
2008,12,23,15,57,-0.90
2008,12,23,15,58,-0.90
2008,12,23,15,59,-0.90
2008,12,23,16,00,-0.90
2008,12,23,16,01,-0.90
2008,12,23,16,02,-0.90
2008,12,23,16,03,-0.90
2008,12,23,16,04,-0.90
2008,12,23,16,05,-0.90
2008,12,23,16,06,-0.90
2008,12,23,16,07,-0.90
2008,12,23,16,08,-0.90
2008,12,23,16,09,-1.00
2008,12,23,16,10,-1.10
2008,12,23,16,11,-1.10
2008,12,23,16,12,-1.10
2008,12,23,16,13,-1.10
2008,12,23,16,14,-1.10
2008,12,23,16,15,-1.10
2008,12,23,16,16,-1.10
2008,12,23,16,17,-1.10
2008,12,23,16,18,-1.10
2008,12,23,16,19,-1.10
2008,12,23,16,20,-1.10
2008,12,23,16,21,-1.10
2008,12,23,16,22,-1.10
2008,12,23,16,23,-1.10
2008,12,23,16,24,-1.10
2008,12,23,16,25,-1.20
2008,12,23,16,26,-1.20
2008,12,23,16,27,-1.20
2008,12,23,16,28,-1.20
2008,12,23,16,29,-1.20
2008,12,23,16,30,-1.20
2008,12,23,16,31,-1.30
2008,12,23,16,32,-1.30
2008,12,23,16,33,-1.30
2008,12,23,16,34,-1.30
2008,12,23,16,35,-1.30
2008,12,23,16,36,-1.30
2008,12,23,16,37,-1.30
2008,12,23,16,38,-1.30
2008,12,23,16,39,-1.30
2008,12,23,16,40,-1.30
2008,12,23,16,41,-1.40
2008,12,23,16,42,-1.40
2008,12,23,16,43,-1.40
2008,12,23,16,44,-1.40
2008,12,23,16,45,-1.40
2008,12,23,16,46,-1.40
2008,12,23,16,47,-1.40
2008,12,23,16,48,-1.40
2008,12,23,16,49,-1.40
2008,12,23,16,50,-1.40
2008,12,23,16,51,-1.40
2008,12,23,16,52,-1.40
2008,12,23,16,53,-1.40
2008,12,23,16,54,-1.40
2008,12,23,16,55,-1.40
2008,12,23,16,56,-1.40
2008,12,23,16,57,-1.40
2008,12,23,16,58,-1.40
2008,12,23,16,59,-1.40
2008,12,23,17,00,-1.40
2008,12,23,17,01,-1.40
2008,12,23,17,02,-1.40
2008,12,23,17,03,-1.40
2008,12,23,17,04,-1.40
2008,12,23,17,05,-1.40
2008,12,23,17,06,-1.40
2008,12,23,17,07,-1.40
2008,12,23,17,08,-1.40
2008,12,23,17,09,-1.50
2008,12,23,17,10,-1.50
2008,12,23,17,11,-1.50
2008,12,23,17,12,-1.50
2008,12,23,17,13,-1.50
2008,12,23,17,14,-1.50
2008,12,23,17,15,-1.50
2008,12,23,17,16,-1.50
2008,12,23,17,17,-1.50
2008,12,23,17,18,-1.50
2008,12,23,17,19,-1.50
2008,12,23,17,20,-1.50
2008,12,23,17,21,-1.50
2008,12,23,17,22,-1.50
2008,12,23,17,23,-1.50
2008,12,23,17,24,-1.50
2008,12,23,17,25,-1.50
2008,12,23,17,26,-1.50
2008,12,23,17,27,-1.50
2008,12,23,17,28,-1.50
2008,12,23,17,29,-1.50
2008,12,23,17,30,-1.50
2008,12,23,17,31,-1.50
2008,12,23,17,32,-1.50
2008,12,23,17,33,-1.50
2008,12,23,17,34,-1.50
2008,12,23,17,35,-1.50
2008,12,23,17,36,-1.60
2008,12,23,17,37,-1.60
2008,12,23,17,38,-1.60
2008,12,23,17,39,-1.50
2008,12,23,17,40,-1.50
2008,12,23,17,41,-1.50
2008,12,23,17,42,-1.50
2008,12,23,17,43,-1.50
2008,12,23,17,44,-1.50
2008,12,23,17,45,-1.50
2008,12,23,17,46,-1.50
2008,12,23,17,47,-1.50
2008,12,23,17,48,-1.50
2008,12,23,17,49,-1.50
2008,12,23,17,50,-1.50
2008,12,23,17,51,-1.50
2008,12,23,17,52,-1.50
2008,12,23,17,53,-1.50
2008,12,23,17,54,-1.50
2008,12,23,17,55,-1.50
2008,12,23,17,56,-1.50
2008,12,23,17,57,-1.50
2008,12,23,17,58,-1.50
2008,12,23,17,59,-1.50
2008,12,23,18,00,-1.50
2008,12,23,18,01,-1.50
2008,12,23,18,02,-1.50
2008,12,23,18,03,-1.50
2008,12,23,18,04,-1.50
2008,12,23,18,05,-1.50
2008,12,23,18,06,-1.50
2008,12,23,18,07,-1.60
2008,12,23,18,08,-1.60